Вернуться в каталог

STARLINK-4311

АктивенСвязьSSO
NORAD 53062·PAYLOAD·🇺🇸 United States

Запущен Jul 11, 2022 с Vandenberg Space Force Base

Loading…

Ближайшие Пролёты (ближайшие 24 часа)

TLE

СвежийSource: CelesTrak SupGP

Эпоха: Sep 15, 2026, 02:40 UTC

1 53062C 22077V   26258.11159722 -.00057445  00000+0 -17831-2 0  2581
2 53062  97.2857  72.9928 0001588  92.7360 303.8642 15.33470655    18

Отслеживайте STARLINK-4311 в реальном времени с AllMySat

Download on the App Store